Погода в Тургеневе

Россия / Саратовская область     51°54′35″N   44°57′56″E
темп.,
°C
ветер,
м/с
пор.,
м/с
влажн.,
%
обл.,
%
осадки,
мм/ч
давл.,
гПа
погр.,
м
13 апреля, вт
вт1301:00+10вюв4117061 0.0 1031172
04:00+8вюв4117180 0.0 1031166
07:00+8вюв4117027 0.0 1031174
10:00+14вюв610465 0.0 1031417
13:00+18вюв68345 0.0 1030872
16:00+19юв6829100 0.0 10291362
19:00+15вюв3545100 0.0 102883
22:00+11вюв4856100 0.0 1028112
14 апреля, ср
ср1401:00+9вюв4116256 0.0 1028169
04:00+8вюв486555 0.0 1027115
07:00+7в410680 0.0 1026162
10:00+13вюв610475 0.0 1025449
13:00+17вюв79360 0.0 10231080
16:00+19юв78290 0.0 10221611
19:00+16вюв36445 0.0 1021107
22:00+11вюв485779 0.0 1021113
15 апреля, чт
чт1501:00+10вюв4106711 0.0 1020143
04:00+9вюв48755 0.0 1020129
07:00+8в4117686 0.0 1019188
10:00+14юв695693 0.0 1018439
13:00+19ююв563893 0.0 1017908
16:00+20ююв453399 0.0 10161459
19:00+17юв354773 0.0 101677
22:00+14юв335094 0.0 101626
16 апреля, пт
пт1601:00+12юв335593 0.0 101629
04:00+11юв226091 0.0 101613
07:00+10вюв3363100 0.0 101643
10:00+16вюв4744100 0.0 1017383
13:00+19юв5534100 0.0 10171435
16:00+19юв4429100 0.0 10172395
19:00+17в344336 0.0 101749
22:00+13в345296 0.0 101841
17 апреля, сб
сб1701:00+11вюв4125974 0.0 1018197
04:00+10в4116417 0.0 1019189
07:00+10в5138075 0.0 1019283
10:00+14в7106786 0.0 1020516
13:00+17в89549 0.0 10201061
16:00+17в895181 0.1 10201433
19:00+14всв7115519 0.1 1020762
22:00+11в5135564 0.1 1022487